Tracking 28520 objects as of 1-Mar-2024
HD Live streaming from Space Station
objects crossing your sky now

O3B FM4

Track O3B FM4 now!
10-day predictions
O3B FM4 is classified as:


NORAD ID: 39189
Int'l Code: 2013-031B
Perigee: 8,068.9 km
Apogee: 8,077.2 km
Inclination: 0.1 °
Period: 287.9 minutes
Semi major axis: 14444 km
RCS: Unknown
Launch date: June 25, 2013
Source: O3b Networks (O3B)
Launch site: FRENCH GUIANA (FRGUI)

O3b satellites will reach customers across the planet between 45 degrees north and south latitude. O3b offers the benefits of fiber-optic lines without the costs to maintain them.
Your satellite tracking list
Your tracking list is empty




NASA's NSSDC Master Catalog

Two Line Element Set (TLE):
1 39189U 13031B   24060.19246452 -.00000016  00000-0  00000-0 0  9991
2 39189   0.0627 357.0590 0002856 337.8977  25.0262  5.00114924195087
Source of the keplerian elements: AFSPC